DW1684 Weather Reports


Display with metric or nautical units.
time (UTC)temp
F
wind
direction
speed
MPH
gust
MPH
rain 1hr
in
rain 24hr
in
rain mn
in
humidity
%
barometer
mb
20260509013323 56 190 1.0 4.0 0.00 0.00 0.00 88 1008.2
20260509012817 56 270 2.0 4.0 0.00 0.00 0.00 87 1008.2
20260509012331 56 149 1.0 4.0 0.00 0.00 0.00 87 1008.1
20260509011822 56 208 1.0 5.0 0.00 0.00 0.00 87 1008.1
20260509011317 56 232 0.0 5.0 0.00 0.00 0.00 87 1008.0
20260509010832 56 209 1.0 5.0 0.00 0.00 0.00 86 1007.9
20260509010322 56 230 1.0 3.0 0.00 0.00 0.00 86 1007.9
20260509005833 57 230 0.0 3.0 0.00 0.00 0.00 86 1007.9
20260509005324 57 222 1.0 5.0 0.00 0.00 0.00 86 1007.9
20260509004855 57 280 1.0 5.0 0.00 0.00 0.00 86 1007.8
20260509004325 57 252 1.0 3.0 0.00 0.00 0.00 86 1007.9
20260509003817 57 6 1.0 4.0 0.00 0.00 0.00 85 1007.9
20260509003347 58 256 1.0 4.0 0.00 0.00 0.00 85 1007.9
20260509002820 58 204 1.0 6.0 0.00 0.00 0.00 85 1007.8
20260509002318 58 253 2.0 6.0 0.00 0.00 0.00 84 1007.8
20260509001849 58 224 2.0 6.0 0.00 0.00 0.00 84 1007.8
20260509001319 59 318 2.0 6.0 0.00 0.00 0.00 84 1007.8
20260509000830 59 246 1.0 6.0 0.00 0.00 0.00 84 1007.8
20260509000341 59 251 1.0 5.0 0.00 0.00 0.00 83 1007.8
20260508235814 59 166 1.0 6.0 0.00 0.00 0.00 82 1007.8
20260508235348 59 270 2.0 6.0 0.00 0.00 0.00 82 1007.8
20260508234818 60 266 3.0 5.0 0.00 0.00 0.00 81 1007.9
20260508234329 60 269 2.0 5.0 0.00 0.00 0.00 81 1007.9
20260508233825 60 176 2.0 7.0 0.00 0.00 0.00 81 1007.9
20260508233319 60 243 4.0 7.0 0.00 0.00 0.00 80 1007.9
20260508232830 60 224 3.0 7.0 0.00 0.00 0.00 80 1007.8
20260508232321 60 239 2.0 10.0 0.00 0.00 0.00 81 1007.8
20260508231832 60 246 4.0 11.0 0.00 0.00 0.00 81 1007.9
20260508231326 60 279 5.0 11.0 0.00 0.00 0.00 81 1007.9
20260508230842 59 258 3.0 8.0 0.00 0.00 0.00 82 1008.0
20260508230317 59 239 1.0 10.0 0.00 0.00 0.00 82 1008.0
20260508225831 59 185 3.0 10.0 0.00 0.00 0.00 81 1008.0
20260508225326 59 206 4.0 10.0 0.00 0.00 0.00 80 1008.1
20260508224840 59 239 4.0 9.0 0.00 0.00 0.00 80 1008.0
20260508224330 59 243 3.0 10.0 0.00 0.00 0.00 80 1008.1
20260508223843 59 255 3.0 10.0 0.00 0.00 0.00 79 1008.0
20260508223332 59 259 4.0 9.0 0.00 0.00 0.00 78 1008.0
20260508222826 60 44 3.0 12.0 0.00 0.00 0.00 78 1008.0
20260508222320 60 229 6.0 12.0 0.00 0.00 0.00 78 1007.9
20260508221854 59 254 3.0 11.0 0.00 0.00 0.00 79 1007.9
20260508221324 59 291 3.0 6.0 0.00 0.00 0.00 79 1008.0
20260508220814 59 260 3.0 6.0 0.00 0.00 0.00 80 1008.0
20260508220351 59 249 3.0 7.0 0.00 0.00 0.00 79 1008.0
20260508215825 59 289 4.0 7.0 0.00 0.00 0.00 79 1008.1
20260508215316 59 255 2.0 7.0 0.00 0.00 0.00 79 1008.0
20260508214827 59 264 3.0 7.0 0.00 0.00 0.00 79 1008.1
20260508214318 59 243 3.0 9.0 0.00 0.00 0.00 79 1008.2
20260508213829 59 296 4.0 9.0 0.00 0.00 0.00 78 1008.2
20260508213346 60 295 4.0 7.0 0.00 0.00 0.00 77 1008.2
20260508212816 59 259 2.0 7.0 0.00 0.00 0.00 77 1008.2
20260508212327 60 253 3.0 8.0 0.00 0.00 0.00 78 1008.3
20260508211822 60 248 3.0 8.0 0.00 0.00 0.00 77 1008.3
20260508211333 60 183 3.0 9.0 0.00 0.00 0.00 77 1008.2
20260508210846 60 235 2.0 9.0 0.00 0.00 0.00 77 1008.2
20260508210335 60 335 4.0 9.0 0.00 0.00 0.00 76 1008.1
20260508205828 60 235 3.0 11.0 0.00 0.00 0.00 76 1008.2
20260508205319 60 248 5.0 11.0 0.00 0.00 0.00 74 1008.3
20260508204830 61 291 4.0 9.0 0.00 0.00 0.00 75 1008.4
20260508204321 61 244 2.0 4.0 0.00 0.00 0.00 78 1008.4
20260508203833 60 227 1.0 4.0 0.00 0.00 0.00 78 1008.4
20260508203324 60 151 1.0 3.0 0.00 0.00 0.00 78 1008.5
20260508202839 60 181 1.0 3.0 0.00 0.00 0.00 78 1008.7
20260508202329 60 160 0.0 4.0 0.00 0.00 0.00 77 1008.8
20260508201846 60 174 1.0 5.0 0.00 0.00 0.00 76 1008.8
20260508201316 61 177 1.0 5.0 0.00 0.00 0.00 75 1008.9
20260508200827 61 244 2.0 4.0 0.00 0.00 0.00 75 1009.0
20260508200338 61 151 1.0 2.0 0.00 0.00 0.00 78 1009.0
20260508195830 61 265 1.0 2.0 0.00 0.00 0.00 77 1009.1
20260508195323 60 139 1.0 4.0 0.00 0.00 0.00 78 1009.1
20260508194837 60 162 1.0 4.0 0.00 0.00 0.00 79 1009.2
20260508194327 60 255 2.0 4.0 0.00 0.00 0.00 79 1009.3
20260508193820 60 174 1.0 2.0 0.00 0.00 0.00 79 1009.4
20260508193330 60 274 1.0 4.0 0.00 0.00 0.00 79 1009.4
20260508192825 60 201 1.0 4.0 0.00 0.00 0.00 79 1009.5
20260508192316 60 145 1.0 2.0 0.00 0.00 0.00 82 1009.6
20260508191827 58 172 1.0 2.0 0.00 0.00 0.00 84 1009.6
20260508191319 58 196 1.0 2.0 0.00 0.00 0.00 83 1009.7
20260508190829 57 96 0.0 2.0 0.00 0.00 0.00 84 1009.9
20260508190326 57 334 1.0 2.0 0.00 0.00 0.00 85 1010.1
20260508185820 57 324 0.0 2.0 0.00 0.00 0.00 85 1010.3
20260508185318 57 180 0.0 1.0 0.00 0.00 0.00 85 1010.3
20260508184829 56 183 0.0 2.0 0.00 0.00 0.00 85 1010.3
20260508184323 56 183 1.0 2.0 0.00 0.00 0.00 86 1010.4
20260508183817 56 193 0.0 2.0 0.00 0.00 0.00 86 1010.5
20260508183334 56 156 1.0 2.0 0.00 0.00 0.00 87 1010.5
20260508182825 56 160 0.0 2.0 0.00 0.00 0.00 86 1010.5
20260508182316 56 257 1.0 2.0 0.00 0.00 0.00 86 1010.7
20260508181847 56 152 0.0 2.0 0.00 0.00 0.00 86 1010.7
20260508181320 55 106 1.0 2.0 0.00 0.00 0.00 86 1010.7
20260508180818 55 130 0.0 2.0 0.00 0.00 0.00 87 1010.7
20260508180329 55 199 0.0 2.0 0.00 0.00 0.00 87 1010.7
20260508175823 55 160 1.0 2.0 0.00 0.00 0.00 86 1010.7
20260508175336 55 189 1.0 2.0 0.00 0.00 0.00 87 1010.8
20260508174827 55 147 1.0 2.0 0.00 0.00 0.00 87 1010.8
20260508174321 54 240 1.0 2.0 0.00 0.00 0.00 87 1011.0
20260508173833 54 178 1.0 2.0 0.00 0.00 0.00 87 1011.1
20260508173324 54 260 0.0 2.0 0.00 0.00 0.00 87 1011.1
20260508172819 54 215 0.0 2.0 0.00 0.00 0.00 87 1011.2
20260508172330 54 249 1.0 2.0 0.00 0.00 0.00 86 1011.5
20260508171821 54 131 0.0 3.0 0.00 0.00 0.00 87 1011.3
20260508171332 54 229 0.0 3.0 0.00 0.00 0.00 87 1011.4
20260508170827 54 153 1.0 3.0 0.00 0.00 0.00 87 1011.5
20260508170318 54 242 1.0 2.0 0.00 0.00 0.00 87 1011.6
20260508165832 54 110 1.0 3.0 0.00 0.00 0.00 87 1011.6
20260508165326 54 236 1.0 4.0 0.00 0.00 0.00 86 1011.6
20260508164824 54 257 2.0 4.0 0.00 0.00 0.00 86 1011.7
20260508164355 54 249 2.0 6.0 0.00 0.00 0.00 86 1011.8
20260508163826 54 170 1.0 6.0 0.00 0.00 0.00 86 1011.9
20260508163320 54 251 2.0 7.0 0.00 0.00 0.00 86 1012.0
20260508162814 54 241 2.0 7.0 0.00 0.00 0.00 86 1012.1
20260508162328 55 262 2.0 5.0 0.00 0.00 0.00 86 1012.0
20260508161819 55 307 1.0 6.0 0.00 0.00 0.00 87 1012.1
20260508161330 54 174 2.0 7.0 0.00 0.00 0.00 87 1012.1
20260508160822 54 226 3.0 8.0 0.00 0.00 0.00 86 1012.1
20260508160317 54 234 3.0 8.0 0.00 0.00 0.00 87 1012.1
20260508155828 55 250 3.0 7.0 0.00 0.00 0.00 87 1012.0
20260508155339 55 239 2.0 7.0 0.00 0.00 0.00 88 1012.0
20260508154829 54 278 2.0 6.0 0.00 0.00 0.00 89 1012.1
20260508154323 54 237 3.0 6.0 0.00 0.00 0.00 89 1012.0
20260508153817 54 255 3.0 7.0 0.00 0.00 0.00 88 1012.0
20260508153354 54 254 4.0 7.0 0.00 0.00 0.00 89 1011.8
20260508152824 54 247 1.0 6.0 0.00 0.00 0.00 90 1011.8
20260508152334 54 245 2.0 6.0 0.00 0.00 0.00 91 1011.9
20260508151845 54 166 2.0 8.0 0.00 0.00 0.00 92 1011.9
20260508151319 53 249 5.0 8.0 0.00 0.00 0.00 90 1011.9
20260508150851 53 274 3.0 7.0 0.00 0.00 0.00 91 1011.9
20260508150321 53 179 2.0 6.0 0.00 0.00 0.00 91 1012.0
20260508145832 53 233 2.0 4.0 0.00 0.00 0.00 92 1012.1
20260508145326 53 251 2.0 4.0 0.00 0.00 0.00 93 1012.1
20260508144820 53 209 1.0 4.0 0.00 0.00 0.00 93 1012.0
20260508144334 53 278 1.0 4.0 0.00 0.00 0.00 94 1012.0
20260508143826 52 258 1.0 4.0 0.00 0.00 0.00 94 1012.1
20260508143320 51 288 1.0 3.0 0.00 0.00 0.00 94 1012.3
20260508142817 51 235 1.0 3.0 0.00 0.00 0.00 93 1012.4
20260508142349 51 235 2.0 3.0 0.00 0.00 0.00 93 1012.4
20260508141819 50 245 1.0 4.0 0.00 0.00 0.00 92 1012.4
20260508141330 50 226 1.0 6.0 0.00 0.00 0.00 92 1012.6
20260508140822 50 229 3.0 6.0 0.00 0.00 0.00 92 1012.7
20260508140332 50 262 3.0 6.0 0.00 0.00 0.00 91 1012.8
20260508135824 50 234 3.0 4.0 0.00 0.00 0.00 91 1012.8
20260508135335 50 14 1.0 4.0 0.00 0.00 0.00 91 1012.7
20260508134827 50 235 2.0 4.0 0.00 0.00 0.00 91 1012.7
20260508134323 50 249 1.0 4.0 0.00 0.00 0.00 91 1012.6
20260508133818 50 243 2.0 4.0 0.00 0.00 0.00 91 1012.6
20260508133329 50 261 2.0 4.0 0.00 0.00 0.00 90 1012.7
20260508132823 50 272 1.0 4.0 0.00 0.00 0.00 90 1012.3
20260508132317 50 255 0.0 4.0 0.00 0.00 0.00 90 1012.3
20260508131831 50 262 1.0 5.0 0.00 0.00 0.00 90 1012.5
20260508131321 50 252 2.0 5.0 0.00 0.00 0.00 90 1012.5
20260508130814 50 267 2.0 4.0 0.00 0.00 0.00 90 1012.5
20260508130331 50 243 2.0 3.0 0.00 0.00 0.00 90 1012.5
20260508125826 50 249 1.0 3.0 0.00 0.00 0.00 90 1012.4
20260508125319 50 250 1.0 3.0 0.00 0.00 0.00 90 1012.2
20260508124814 50 237 1.0 3.0 0.00 0.00 0.00 90 1012.3
20260508124328 50 255 2.0 3.0 0.00 0.00 0.00 90 1012.3
20260508123820 50 241 0.0 6.0 0.00 0.00 0.00 90 1012.3
20260508123314 49 300 1.0 6.0 0.00 0.00 0.00 90 1012.4
20260508122828 49 253 1.0 4.0 0.00 0.00 0.00 90 1012.5
20260508122343 49 251 2.0 4.0 0.00 0.00 0.00 90 1012.4
20260508121853 49 252 2.0 5.0 0.00 0.00 0.00 90 1012.4
20260508121325 49 263 2.0 5.0 0.00 0.00 0.00 90 1012.3
20260508120821 49 233 0.0 5.0 0.00 0.00 0.00 90 1012.2
20260508120332 49 244 2.0 5.0 0.00 0.00 0.00 91 1012.2
20260508115826 49 237 3.0 6.0 0.00 0.00 0.00 91 1012.1
20260508115320 48 285 3.0 6.0 0.00 0.00 0.00 91 1012.1
20260508114814 48 285 2.0 6.0 0.00 0.00 0.00 92 1012.1
20260508114328 48 226 2.0 5.0 0.00 0.00 0.00 93 1012.0
20260508113824 47 252 1.0 5.0 0.00 0.00 0.00 93 1012.0
20260508113354 47 268 2.0 5.0 0.00 0.00 0.00 93 1012.1
20260508112824 47 227 1.0 3.0 0.00 0.00 0.00 93 1012.0
20260508112335 47 245 1.0 3.0 0.00 0.00 0.00 93 1012.0
20260508111826 46 240 1.0 3.0 0.00 0.00 0.00 93 1012.0
20260508111317 46 251 1.0 3.0 0.00 0.00 0.00 93 1012.0
20260508110829 46 236 1.0 3.0 0.00 0.00 0.00 92 1012.0
20260508110346 46 252 0.0 4.0 0.00 0.00 0.00 92 1012.0
20260508105836 46 328 0.0 4.0 0.00 0.00 0.00 92 1012.0
20260508105331 46 286 1.0 4.0 0.00 0.00 0.00 92 1012.0
20260508104821 46 312 0.0 1.0 0.00 0.00 0.00 92 1012.0
20260508104353 46 308 0.0 1.0 0.00 0.00 0.00 92 1011.9
20260508103827 47 311 0.0 1.0 0.00 0.00 0.00 92 1011.9
20260508103337 47 286 0.0 1.0 0.00 0.00 0.00 91 1011.8
20260508102851 47 287 0.0 3.0 0.00 0.00 0.00 91 1011.9
20260508102320 47 312 0.0 4.0 0.00 0.00 0.00 91 1011.9
20260508101831 47 295 2.0 4.0 0.00 0.00 0.00 91 1011.8
20260508101325 47 261 2.0 3.0 0.00 0.00 0.00 91 1011.7
20260508100821 47 272 1.0 3.0 0.00 0.00 0.00 91 1011.6
20260508100335 47 299 0.0 3.0 0.00 0.00 0.00 91 1011.5
20260508095827 47 249 1.0 3.0 0.00 0.00 0.00 91 1011.6
20260508095317 47 248 1.0 4.0 0.00 0.00 0.00 91 1011.7
20260508094828 47 271 1.0 6.0 0.00 0.00 0.00 91 1011.7
20260508094322 47 318 2.0 6.0 0.00 0.00 0.00 92 1011.7
20260508093818 47 197 1.0 5.0 0.00 0.00 0.00 92 1011.7
20260508093329 47 278 2.0 7.0 0.00 0.00 0.00 92 1011.8
20260508092842 47 285 2.0 7.0 0.00 0.00 0.00 93 1011.9
20260508092317 46 237 3.0 6.0 0.00 0.00 0.00 93 1011.8
20260508091830 46 310 1.0 3.0 0.00 0.00 0.00 93 1011.9
20260508091321 46 241 1.0 4.0 0.00 0.00 0.00 94 1011.8
20260508090834 46 253 1.0 4.0 0.00 0.00 0.00 94 1011.9
20260508090325 46 295 1.0 5.0 0.00 0.00 0.00 94 1011.9
20260508085835 45 283 2.0 5.0 0.00 0.00 0.00 94 1011.9
20260508085326 45 258 1.0 3.0 0.00 0.00 0.00 94 1011.9
20260508084817 45 255 0.0 3.0 0.00 0.00 0.00 94 1011.9
20260508084328 45 228 1.0 3.0 0.00 0.00 0.00 94 1011.9
20260508083828 45 250 1.0 3.0 0.00 0.00 0.00 94 1011.9
20260508083339 45 260 0.0 2.0 0.00 0.00 0.00 94 1011.9
20260508082828 45 260 1.0 2.0 0.00 0.00 0.00 94 1011.9
20260508082319 45 247 0.0 2.0 0.00 0.00 0.00 94 1011.9
20260508081831 45 243 1.0 5.0 0.00 0.00 0.00 94 1012.0
20260508081321 45 259 0.0 5.0 0.00 0.00 0.00 94 1011.9
20260508080855 45 263 1.0 2.0 0.00 0.00 0.00 94 1012.0
20260508080324 45 268 0.0 3.0 0.00 0.00 0.00 94 1012.0
20260508075835 45 273 1.0 3.0 0.00 0.00 0.00 95 1012.0
20260508075325 45 297 1.0 2.0 0.00 0.00 0.00 95 1012.0
20260508074820 45 268 0.0 3.0 0.00 0.00 0.00 95 1012.0
20260508074331 45 257 0.0 3.0 0.00 0.00 0.00 95 1012.0
20260508073824 45 262 0.0 2.0 0.00 0.00 0.00 95 1011.9
20260508073334 45 259 0.0 4.0 0.00 0.00 0.00 95 1011.9
20260508072825 45 302 1.0 4.0 0.00 0.00 0.00 96 1011.9
20260508072316 44 275 0.0 2.0 0.00 0.00 0.00 96 1011.9
20260508071830 44 274 1.0 4.0 0.00 0.00 0.00 95 1011.8
20260508071321 44 236 0.0 4.0 0.00 0.00 0.00 96 1011.8
20260508070839 44 241 1.0 4.0 0.00 0.00 0.00 96 1011.8
20260508065847 44 265 1.0 3.0 0.00 0.00 0.00 96 1011.9
20260508065321 44 250 0.0 3.0 0.00 0.00 0.00 96 1011.9
20260508064832 44 273 1.0 3.0 0.00 0.00 0.00 96 1011.9
20260508064323 44 270 0.0 3.0 0.00 0.00 0.00 96 1012.0
20260508063836 44 282 0.0 2.0 0.00 0.00 0.00 96 1012.0
20260508063326 44 229 0.0 2.0 0.00 0.00 0.00 96 1012.0
20260508062817 44 218 0.0 1.0 0.00 0.00 0.00 96 1012.0
20260508062328 44 248 0.0 2.0 0.00 0.00 0.00 96 1012.1
20260508061819 44 249 0.0 2.0 0.00 0.00 0.00 96 1012.0
20260508061334 44 255 1.0 2.0 0.00 0.00 0.00 96 1012.1
20260508060848 44 236 0.0 2.0 0.00 0.00 0.00 96 1012.2
20260508060317 44 242 1.0 2.0 0.00 0.00 0.00 96 1012.2
20260508055828 44 167 0.0 1.0 0.00 0.00 0.00 95 1012.3
20260508055319 44 163 0.0 1.0 0.00 0.00 0.00 96 1012.3
20260508054830 44 163 0.0 2.0 0.00 0.00 0.00 96 1012.3
20260508054321 44 163 0.0 2.0 0.00 0.00 0.00 96 1012.4
20260508053814 44 228 0.0 2.0 0.00 0.00 0.00 95 1012.4
20260508053327 44 232 0.0 2.0 0.00 0.00 0.00 95 1012.3
20260508052822 44 141 0.0 1.0 0.00 0.00 0.00 95 1012.3
20260508052333 44 141 0.0 1.0 0.00 0.00 0.00 95 1012.4
20260508051824 44 141 0.0 1.0 0.00 0.00 0.00 95 1012.4
20260508051335 44 141 0.0 1.0 0.00 0.00 0.00 95 1012.4
20260508050849 44 141 0.0 1.0 0.00 0.00 0.00 95 1012.5
20260508050318 44 141 0.0 1.0 0.00 0.00 0.00 95 1012.4
20260508045829 44 141 0.0 1.0 0.00 0.00 0.00 95 1012.4
20260508045320 44 141 0.0 0.0 0.00 0.00 0.00 95 1012.4
20260508044831 44 141 0.0 1.0 0.00 0.00 0.00 95 1012.4
20260508044326 44 141 0.0 1.0 0.00 0.00 0.00 95 1012.5
20260508043819 44 143 0.0 1.0 0.00 0.00 0.00 95 1012.5
20260508043349 44 143 0.0 1.0 0.00 0.00 0.00 95 1012.4
20260508042819 45 143 0.0 2.0 0.00 0.00 0.00 95 1012.4
20260508042313 45 143 1.0 2.0 0.00 0.00 0.00 95 1012.4
20260508041847 45 150 0.0 2.0 0.00 0.00 0.00 95 1012.4
20260508041317 45 150 0.0 1.0 0.00 0.00 0.00 94 1012.4
20260508040830 45 150 0.0 2.0 0.00 0.00 0.00 95 1012.4
20260508040323 45 150 1.0 2.0 0.00 0.00 0.00 95 1012.4
20260508035818 45 150 0.0 1.0 0.00 0.00 0.00 95 1012.4
20260508035329 45 150 0.0 2.0 0.00 0.00 0.00 95 1012.4
20260508034840 45 150 0.0 2.0 0.00 0.00 0.00 95 1012.4
20260508034355 45 150 0.0 2.0 0.00 0.00 0.00 94 1012.4
20260508033826 45 150 0.0 2.0 0.00 0.00 0.00 94 1012.4
20260508033316 45 151 0.0 2.0 0.00 0.00 0.00 94 1012.4
20260508032830 46 151 1.0 2.0 0.00 0.00 0.00 94 1012.4
20260508032321 46 147 1.0 2.0 0.00 0.00 0.00 94 1012.5
20260508031832 46 151 1.0 2.0 0.00 0.00 0.00 94 1012.5
20260508031327 46 106 0.0 1.0 0.00 0.00 0.00 94 1012.7
20260508030820 46 106 0.0 2.0 0.00 0.00 0.00 94 1012.7
20260508030313 46 142 1.0 2.0 0.00 0.00 0.00 94 1012.7
20260508025847 46 142 1.0 2.0 0.00 0.00 0.00 93 1012.7
20260508025337 46 133 0.0 1.0 0.00 0.00 0.00 93 1012.7
20260508024830 46 133 1.0 1.0 0.00 0.00 0.00 93 1012.8
20260508024321 46 133 0.0 2.0 0.00 0.00 0.00 93 1012.7
20260508023833 46 133 0.0 3.0 0.00 0.00 0.00 93 1012.6
20260508023324 46 133 2.0 3.0 0.00 0.00 0.00 93 1012.4
20260508022819 46 102 1.0 2.0 0.00 0.00 0.00 92 1012.4
20260508022333 46 106 1.0 2.0 0.00 0.00 0.00 92 1012.4
20260508021824 47 96 1.0 2.0 0.00 0.00 0.00 92 1012.3
20260508021335 47 102 1.0 4.0 0.00 0.00 0.00 92 1012.4
20260508020848 47 102 2.0 4.0 0.00 0.00 0.00 92 1012.3
20260508020337 47 109 2.0 3.0 0.00 0.00 0.00 91 1012.4
20260508015852 47 110 2.0 7.0 0.00 0.00 0.00 91 1013.0
20260508015342 47 259 2.0 7.0 0.00 0.00 0.00 90 1013.8
20260508014832 48 324 3.0 7.0 0.00 0.00 0.00 89 1013.8
20260508014343 49 234 3.0 9.0 0.00 0.00 0.00 87 1013.5
20260508013819 49 272 4.0 9.0 0.00 0.00 0.00 85 1013.3